This is the latest recevied weather packets stored in our database for station/object KB4RFE. If no packets are shown the sender has not sent any weather packets the latest 10 day(s).
| Time | Temp. | Humidity | Pressure | Rain* | Wind** | Luminosity | Snow |
|---|---|---|---|---|---|---|---|
| 1788134310 | 27.22° C | 85% | 1022.1 hPa | 0 mm | - | 0 W/m² | - |
| 1788134005 | 27.22° C | 85% | 1022.2 hPa | 0 mm | - | 1 W/m² | - |
| 1788133701 | 27.22° C | 84% | 1022 hPa | 0 mm | - | 2 W/m² | - |
| 1788133396 | 27.22° C | 84% | 1022.1 hPa | 0 mm | - | 4 W/m² | - |
| 1788133092 | 27.22° C | 84% | 1022.1 hPa | 0 mm | - | 8 W/m² | - |
| 1788132787 | 27.22° C | 83% | 1021.9 hPa | 0 mm | - | 11 W/m² | - |
| 1788132483 | 27.22° C | 83% | 1021.9 hPa | 0 mm | - | 18 W/m² | - |
| 1788132178 | 27.78° C | 83% | 1021.8 hPa | 0 mm | - | 23 W/m² | - |
| 1788131875 | 27.78° C | 83% | 1021.7 hPa | 0 mm | - | 26 W/m² | - |
| 1788131574 | 27.78° C | 82% | 1021.6 hPa | 0 mm | - | 31 W/m² | - |
| 1788131269 | 27.78° C | 81% | 1021.5 hPa | 0 mm | - | 37 W/m² | - |
| 1788130965 | 27.78° C | 81% | 1021.5 hPa | 0 mm | - | 38 W/m² | - |
| 1788130668 | 28.33° C | 82% | 1021.5 hPa | 0 mm | - | 50 W/m² | - |
| 1788130359 | 28.33° C | 81% | 1021.4 hPa | 0 mm | - | 66 W/m² | - |
| 1788130058 | 28.33° C | 80% | 1021.5 hPa | 0 mm | - | 74 W/m² | - |
| 1788129754 | 28.33° C | 81% | 1021.5 hPa | 0 mm | - | 78 W/m² | - |
| 1788129450 | 28.89° C | 80% | 1021.5 hPa | 0 mm | - | 88 W/m² | - |
| 1788129146 | 28.89° C | 79% | 1021.6 hPa | 0 mm | - | 103 W/m² | - |
| 1788128840 | 28.89° C | 80% | 1021.5 hPa | 0 mm | - | 115 W/m² | - |
| 1788128535 | 29.44° C | 79% | 1021.6 hPa | 0 mm | - | 123 W/m² | - |
| 1788128231 | 29.44° C | 79% | 1021.8 hPa | 0 mm | - | 130 W/m² | - |
| 1788127928 | 29.44° C | 78% | 1021.7 hPa | 0 mm | - | 133 W/m² | - |
| 1788127623 | 29.44° C | 79% | 1021.7 hPa | 0 mm | - | 136 W/m² | - |
| 1788127337 | 30° C | 78% | 1021.8 hPa | 0 mm | - | 147 W/m² | - |
| 1788127021 | 30° C | 80% | 1021.8 hPa | 0 mm | - | 176 W/m² | - |
* Rain latest hour (hover to see other rain measurements)
** Current wind speed in m/s (hover to see current wind gust speed)